Weather Service Report


448 
ASUS41 KAKQ 300615
RWRAKQ

REGIONAL WEATHER ROUNDUP
NATIONAL WEATHER SERVICE WAKEFIELD VA
200 AM EDT FRI SEP 30 2016

Note: "fair" indicates few or no clouds below 12,000 feet with no
significant weather and/or obstructions to visibility. * = Denotes
station may not report precipitation (e.g., rain,snow,etc.),
thunder or fog.

VAZ042-051-052>054-056-300700-
NORTHERN VIRGINIA
  
CITY           SKY/WX    TMP DP  RH WIND       PRES   REMARKS
WASH NATIONAL  HVY RAIN  64  63  96 NE13      30.14S FOG              
DULLES         LGT RAIN  62  60  93 E12G20    30.14R                  
FORT BELVOIR   LGT RAIN  63  61  94 NE2       30.12S                  
QUANTICO       LGT RAIN  66  63  90 NE13      30.12S FOG              
FREDERICKSBRG* DRIZZLE   65  65 100 NE3       30.09F                  
STAFFORD*      DRIZZLE   64  64 100 NE5       30.15R                  
WARRENTON      CLOUDY    64  59  85 NE7       30.12S                  
CULPEPER*      LGT RAIN  64  64  97 NE6       30.13S                  
MANASSAS*      CLOUDY    64  64 100 NE7       30.13S                  
LEESBURG*      RAIN      63  63 100 NE7G16    30.16S                  
WINCHESTER     DRIZZLE   61  61 100 CALM      30.16R                  
FRONT ROYAL*   CLOUDY    61  61 100 NE5       30.14S                  
LURAY*         RAIN     N/A N/A N/A N8        30.13S                  
$$

VAZ048-049-060>072-079>083-300700-
CENTRAL AND SOUTH CENTRAL VIRGINIA
  
CITY           SKY/WX    TMP DP  RH WIND       PRES   REMARKS
RICHMOND       CLOUDY    67  67 100 NE9       30.05S FOG              
CHESTERFIELD*  CLOUDY    68  55  64 NE5       30.05F                  
PETERSBURG*    CLOUDY   N/A N/A N/A NE6       30.05S FOG              
HANOVER        LGT RAIN  67  65  93 VRB6      30.07F FOG              
TAPPAHANNOCK*  DRIZZLE   69  69 100 N6        30.07F                  
QUINTON*       CLOUDY    68  68 100 NE5       30.05S                  
CHARLOTTSVILLE LGT RAIN  66  63  90 NE10      30.09S FOG              
GORDONSVILLE*  CLOUDY    64  64 100 NE7       30.09S                  
ORANGE*          N/A     64  64 100 CALM      30.11F                  
LOUISA*        CLOUDY    70  66  88 NE5       30.07F FOG              
BUMPASS*       CLOUDY    65  65 100 NE3       30.08S                  
FARMVILLE*     CLOUDY    68  68  99 NE6       30.04S FOG              
CREWE*         CLOUDY    67  67 100 CALM      30.05S VSB 1            
FORT PICKETT*  CLOUDY   N/A N/A N/A NE7       30.05S                  
CHASE CITY*    CLOUDY    69  67  94 CALM      30.03F                  
CLARKSVILLE*   CLOUDY    72  72 100 E7        30.02S                  
SOUTH HILL*    CLOUDY    69  69 100 CALM      30.09S                  
LAWRENCEVILLE* CLOUDY    69  68  96 CALM      30.04S                  
EMPORIA*       CLOUDY    70  70 100 CALM      30.05S FOG              
$$

VAZ088>098-300700-
SOUTHEAST VIRGINIA
  
CITY           SKY/WX    TMP DP  RH WIND       PRES   REMARKS
NORFOLK        CLOUDY    71  71 100 CALM      30.02S                  
VIRGINIA BEACH FOG       69  67  93 SW5       30.01S VSB 1/2          
NORFOLK NAVAL  CLOUDY    73  71  93 CALM      30.03S FOG              
WEST POINT*    CLOUDY    70  69  97 N3        30.06S                  
SALUDA*        CLOUDY    71  71 100 N3        30.04S                  
NEWPORT NEWS   CLOUDY    72  71  97 N3        30.03S                  
LANGLEY AFB    CLOUDY    73  73 100 NE2       30.02S                  
FORT EUSTIS    CLOUDY    72  70  95 NE2       30.00F                  
WILLIAMSBURG*  CLOUDY    73  72  94 CALM      30.04F                  
HR EXEC AP*    CLOUDY    70  66  88 CALM      30.04S                  
FRANKLIN*      FOG       67  67  99 CALM      30.03S VSB 1/2          
US460-WAKEFLD  FOG       71  70  96 CALM      30.03S VSB 1/4          
$$

VAZ020-022-025-037-045-300700-
WEST CENTRAL AND SOUTHWEST VIRGINIA
  
CITY           SKY/WX    TMP DP  RH WIND       PRES   REMARKS
STAUNTON*      DRIZZLE   63  61  95 N3        30.11S                  
WAYNESBORO*    CLOUDY    63  61  94 CALM      30.10R                  
HOT SPRINGS VA NOT AVBL                                               
LYNCHBURG      CLOUDY    66  66 100 E7        30.05S                  
DANVILLE       CLOUDY    71  70  96 CALM      30.01S                  
SOUTH BOSTON*  CLOUDY    71  69  95 E6        30.02S                  
MARTINSVILLE   CLOUDY    69  67  93 SE3       30.03S                  
ROANOKE        CLOUDY    68  67  96 VRB3      30.03F                  
BLACKSBURG     RAIN      59  59 100 CALM      30.07F                  
DUBLIN*        MOCLDY    60  60 100 CALM      30.07S FOG              
MARION*        LGT RAIN  57  56  96 CALM      30.08F                  
HILLSVILLE*    HVY RAIN  58  58 100 SW10      30.07R                  
RICHLANDS*     CLOUDY    54  54 100 CALM      30.05F                  
WISE*          FOG       52  52 100 NE5       30.08S VSB<1/4          
ABINGDON*      CLOUDY    58  57  98 CALM      30.05S                  
$$

MDZ021>025-VAZ099-100-300700-
SOUTHERN MARYLAND AND THE DELMARVA PENINSULA
  
CITY           SKY/WX    TMP DP  RH WIND       PRES   REMARKS
PATUXENT RIVER CLOUDY    68  64  87 NE16G25   30.07F                  
BAY BRIDGE APT LGT RAIN  63  61  94 MISG      30.13R                  
LEONARDTOWN    CLOUDY    66  63  88 NE9       30.11S                  
DOVER          HVY RAIN  63  63 100 N13       30.14S                  
GEORGETOWN     LGT RAIN  69  50  51 E16G32    30.10F                  
EASTON         NOT AVBL                                               
CAMBRIDGE      CLOUDY    64  63  94 NE13G21   30.09F                  
SALISBURY      HVY RAIN  70  69  97 N15G22    30.04F VSB 1            
OCEAN CITY     HVY RAIN N/A N/A N/A E21G31    30.04F                  
WALLOPS ISLAND LGT RAIN  73  73 100 E5        30.04S                  
ACCOMACK*      CLOUDY   N/A N/A N/A CALM      30.03S HAZE             
$$

NCZ012>017-030>032-300700-
NORTH CENTRAL AND EASTERN NORTH CAROLINA
  
CITY           SKY/WX    TMP DP  RH WIND       PRES   REMARKS
ROANOKE RAPIDS CLOUDY    70  70 100 CALM      30.03S                  
RALEIGH        MOCLDY    73  71  93 SE9       30.00F                  
ELIZABETH CITY FOG       67  66  97 W3        30.02F VSB 3/4          
AHOSKIE*       CLOUDY    69  69  99 CALM      30.03F FOG              
EDENTON*       CLOUDY    70  70 100 N3        30.03S FOG              
CURRITUCK*     NOT AVBL                                               
KILL DEVIL HLS PTCLDY    73  73 100 CALM      30.01F                  
MANTEO         PTCLDY    73  73 100 CALM      30.03S                  
CAPE HATTERAS  CLEAR     78  73  84 SW7       30.02F                  
TARBORO*       CLOUDY    72  71  97 CALM      30.03F                  
GOLDSBORO      PTCLDY    70  70 100 E3        29.99S                  
WASHINGTON     FOG       71  71  99 CALM      30.02F VSB 1/4          
GREENVILLE     FOG       72  72 100 E5        30.03S VSB 3/4          
NEW BERN       PTCLDY    70  69  97 CALM      30.02R FOG              
WILMINGTON     CLEAR     75  73  93 SE3       29.98F                  
$$

VAZ048-300700-
ELSEWHERE
  
CITY           SKY/WX    TMP DP  RH WIND       PRES   REMARKS
HARRISBURG PA  LGT RAIN  58  57  97 E5        30.23F                  
BALTIMORE      RAIN      62  59  90 NE18G30   30.15F FOG              
ANNAPOLIS      LGT RAIN  64  62  93 NE14G22   30.13R FOG              
ANDREWS AFB    LGT RAIN  63  61  94 NE14      30.12S                  
PHILADELPHIA   LGT RAIN  60  58  92 NE17G30   30.22F FOG              
HENDERSON NC   CLOUDY    69  67  93 E5        30.02F                  
GREENSBORO     CLOUDY    71  70  96 SE6       29.99S                  
ROCKY MOUNT    CLOUDY    72  72 100 VRB5      30.02S                  
$$

VAZ100-300700-
MARINE
  
STATION/POSITION TIME  TEMP    WIND        PRES    WAVE   SWELL
                       AIR SEA DIR/SP/G            HT/PER HT/PER
                 (UTC) (F)     (DEG/KT/KT) (MB)    (FT/S) (FT/S)
BRANDYWINE LGT   0542   67      80/ 29/ 37   N/A
CAPE MAY NJ      0542   67 70   70/ 11/ 21 1019.3F
LEWES DE         0542   69 70   90/ 30/ 40 1018.5F
OCEAN-CITY-INLET 0542   71 71  100/ 18/ 29 1018.2R
WACHAPREAGUE VA  0542   73 73   20/  3/  4 1016.8F
THOMAS POINT MD  0600   64 72   50/ 24/ 29 1020.8F
GOOSES REEF MD   0600   68 73   90/ 23/ 31 1018.9    3/ 3
COVE POINT MD    0542   67      90/ 23/ 34 1019.0F
SOLOMONS ISLAND  0542   68 74   40/ 17/ 21   N/A
BISHOPS HEAD MD  0542   68 71   30/ 17/ 20 1018.4F
PINEY POINT MD   0548           80/ 10/ 14   N/A
POTOMAC MD       0600   70 74   50/ 16/ 21 1016.9    2/ 3
CAMBRIDGE MD     0542   67 72   50/ 15/ 18 1018.4F
LEWISETTA VA     0542   71 72   70/ 17/ 25 1017.2F
RAPPAHANNOCK LGT 0548           30/  7/  7 1017.5S
STINGRAY PT      0600   74 75  360/ 12/ 14 1017.1    2/ 3
YORK RVR RNG VA  0542   74      20/  9/ 10 1016.2F
YORKTOWN VA      0542   72 76   10/  7/  8 1016.4F
JAMESTOWN VA     0600   71 76   20/  4/  6   N/A     0
DOMINION TERM VA 0542   74      30/  2/  3 1016.7F
KIPTOPEKE VA     0548      75   30/  3/  3   N/A
CHES BAY BRIDGE  0542   75 76   30/  2/  2 1016.3F
CAPE HENRY VA    0542   74      CALM  /  1   N/A
WILLOUBY STN VA  0542   74      20/  2/  3   N/A
CAPE HENRY BUOY  0542      76                N/A     6/ 8   2/11
1ST LANDING BUOY 0600   75 76   50/  2/  4 1016.4    4/ 6
CAPE CHARLES BUO 0556      76                N/A     6/10   2/11
OFFSHORE WE BUOY 0551      75                N/A     8/ 9   2/11
64NM E OF VA BCH 0550   74 74  180/  4/  6 1016.7R   8/10   8/10
DUCK PIER NC     0542   74 76  240/  2/  2 1016.0F
44056 DUCK FRF   0541      76                N/A     6/ 9   2/11
OREGON INLET NC  0542   77 78  280/  3/  5 1016.4F
HATTERAS NC      0542   78 80  190/  4/  7 1016.2F
DIAMOND SHLS NC  0550   80 77  210/ 10/ 12 1016.4F   4/ 9   3/ 9
CAPE LOOKOUT NC  0600   79     160/ 11/ 12 1016.0F
$$
  

Return to Home page


Western Regional Climate Center, wrcc@dri.edu